Location: Molino di Ancona
(43.6167°N, 13.3667°E)
Time: 11:50:29
(UTC+00:00)

AQUARIUS - Pass Details

Date: 15 December 2019
Orbit: 650 x 653 km, 98.0° (Epoch: 27 January)

Event Time Altitude Azimuth Distance (km) Brightness Sun altitude
Rises 05:30:15 0° 13° (NNE) 2,983 7.5 -10.9°
Reaches altitude 10° 05:32:29 10° 14° (NNE) 2,067 6.7 -10.5°
Maximum altitude 05:37:00 84° 104° (ESE) 661 4.3 -9.8°
Drops below altitude 10° 05:41:29 10° 192° (SSW) 2,050 6.9 -9.0°
Sets 05:43:41 0° 193° (SSW) 2,955 7.7 -8.6°
